"Pseudo-MPEC" for P22oG6r

Created 2026 Aug 7 3:35:09 UT using Find_Orb

Click here for an explanation of pseudo-MPECs

 
 Astrometry: 
     P22oG6r*0C2026 07 26.50266023 12 24.721+08 20 17.08   ~7QDZ 22.03wXNEOCPF52
     P22oG6r 0C2026 07 26.51234423 12 25.188+08 20 21.23   ~7QDZ 21.53wXNEOCPF52
     P22oG6r 0C2026 07 26.52197723 12 25.632+08 20 25.29   ~7QDZ 21.37wXNEOCPF52
     P22oG6r 0C2026 07 26.53180623 12 26.119+08 20 29.67   ~7QDZ 21.99wXNEOCPF52
     P22oG6r 0C2026 07 26.57190623 12 27.995+08 20 46.50   ~7QH5 21.82GVNEOCPF51
     P22oG6r 0C2026 07 26.57255823 12 28.023+08 20 46.75   ~7QH5 21.47GVNEOCPF51
     P22oG6r 0C2026 07 27.49732923 13 36.631+08 26 51.74   ~7RM5 21.94GVNEOCPF52
     P22oG6r 0C2026 07 27.49815223 13 36.664+08 26 51.47   ~7RM5 21.94GVNEOCPF52

Station data:
(F51) Pan-STARRS 1, Haleakala  (N20.707234 W156.255910)  US/Hawaii.
   Observers J. Herman, T. Lowe, P. Minguez, A. Schultz, I. Smith. Measurers
   K. Chambers, T. de Boer, J. Fairlamb, H. Gao, M. Huber, C.-C. Lin, E.
   Magnier, Y. Ramanjooloo, R. Wainscoat, R. Weryk. 1.8-m Ritchey-Chrétien +
   CCD.
(F52) Pan-STARRS 2, Haleakala  (N20.707382 W156.255910)  US/Hawaii.
   Observers J. Herman, T. Lowe, P. Minguez, A. Schultz, I. Smith. Measurers
   K. Chambers, T. de Boer, J. Fairlamb, H. Gao, M. Huber, C.-C. Lin, E.
   Magnier, Y. Ramanjooloo, R. Wainscoat, R. Weryk. 1.8-m Ritchey-Chrétien +
   CCD.

Orbital elements:  P22oG6r
   Perihelion 2026 Jun 30.254722 +/- 0.731 TT =  6:06:47.9 (JD 2461221.754722)
Epoch 2026 Jul 27.0 TT = JDT 2461248.5   Earth MOID: 0.0706   Ma: 0.0004
M  16.738996573 +/- 2.5             (J2000 ecliptic)             AutoNEOCP
n   0.625867350 +/- 0.112           Peri.   56.892270 +/- 28
a   1.353571448 +/- 0.162           Node   226.316433 +/- 26
e   0.19926353 +/- 0.104            Incl.    1.431331 +/- 0.06
P   1.575/575.191d         H 24.39  G  0.15   U 11.3
q 1.083854013 +/- 0.012    Q 1.623288882 +/- 0.335
From 8 observations 2026 July 26-27 (23.9 hr); mean residual 0".13
Residuals in arcseconds: 
260726 F52  .06+  .09+    260726 F52  .10+  .02+    260727 F52  .02+  .30+    
260726 F52  .04+  .01-    260726 F51  .02+  .02+    260727 F52  .02-  .30-    
260726 F52  .21-  .13-    260726 F51  .02-  .00     

Ephemerides (geocentric):
Date (UTC) HH   RA             Dec           delta  r     elong  mag " sig PA
---- --------  ------------   ------------  ------ ------ -----  --- --------
2026 08 07 04  23 21 31.634   +08 49 49.39  .13498 1.1184 138.2 21.8  804  75
2026 08 07 05  23 21 32.471   +08 49 44.56  .13501 1.1185 138.2 21.8  809  75
2026 08 07 06  23 21 33.301   +08 49 39.66  .13504 1.1185 138.3 21.8  814  75
2026 08 07 07  23 21 34.123   +08 49 34.67  .13508 1.1186 138.3 21.8  819  75
2026 08 07 08  23 21 34.938   +08 49 29.61  .13511 1.1187 138.3 21.8  824  75
2026 08 07 09  23 21 35.745   +08 49 24.47  .13515 1.1188 138.4 21.8  829  75
2026 08 07 10  23 21 36.544   +08 49 19.25  .13518 1.1188 138.4 21.8  834  75
2026 08 07 11  23 21 37.335   +08 49 13.96  .13522 1.1189 138.4 21.8  839  75
2026 08 07 12  23 21 38.119   +08 49 08.58  .13525 1.1190 138.5 21.8  844  75
2026 08 07 13  23 21 38.896   +08 49 03.13  .13529 1.1191 138.5 21.8  849  75
2026 08 07 14  23 21 39.665   +08 48 57.61  .13532 1.1191 138.6 21.8  853  75
2026 08 07 15  23 21 40.426   +08 48 52.00  .13536 1.1192 138.6 21.8  858  75
2026 08 07 16  23 21 41.180   +08 48 46.32  .13539 1.1193 138.6 21.8  863  75
2026 08 07 17  23 21 41.926   +08 48 40.56  .13543 1.1193 138.7 21.8  868  75
2026 08 07 18  23 21 42.664   +08 48 34.72  .13546 1.1194 138.7 21.8  873  75
2026 08 07 19  23 21 43.395   +08 48 28.81  .13550 1.1195 138.7 21.8  878  75
2026 08 07 20  23 21 44.119   +08 48 22.81  .13553 1.1196 138.8 21.8  883  75
2026 08 07 21  23 21 44.835   +08 48 16.74  .13557 1.1196 138.8 21.8  888  75
2026 08 07 22  23 21 45.543   +08 48 10.60  .13560 1.1197 138.8 21.8  893  75
2026 08 07 23  23 21 46.244   +08 48 04.37  .13564 1.1198 138.9 21.8  898  75
2026 08 08 00  23 21 46.937   +08 47 58.07  .13567 1.1199 138.9 21.8  903  75
2026 08 08 01  23 21 47.623   +08 47 51.69  .13571 1.1199 139.0 21.8  908  75
2026 08 08 02  23 21 48.301   +08 47 45.24  .13574 1.1200 139.0 21.8  913  75
2026 08 08 03  23 21 48.972   +08 47 38.70  .13578 1.1201 139.0 21.8  918  75
2026 08 08 04  23 21 49.635   +08 47 32.10  .13581 1.1202 139.1 21.8  923  75
2026 08 08 05  23 21 50.291   +08 47 25.41  .13585 1.1202 139.1 21.8  928  75
2026 08 08 06  23 21 50.939   +08 47 18.64  .13588 1.1203 139.1 21.8  933  75
2026 08 08 07  23 21 51.580   +08 47 11.80  .13592 1.1204 139.2 21.8  938  75
2026 08 08 08  23 21 52.214   +08 47 04.89  .13595 1.1205 139.2 21.8  943  75
2026 08 08 09  23 21 52.840   +08 46 57.89  .13599 1.1205 139.3 21.8  948  76
2026 08 08 10  23 21 53.458   +08 46 50.82  .13603 1.1206 139.3 21.8  953  76
2026 08 08 11  23 21 54.069   +08 46 43.67  .13606 1.1207 139.3 21.8  958  76
2026 08 08 12  23 21 54.672   +08 46 36.45  .13610 1.1208 139.4 21.8  963  76
2026 08 08 13  23 21 55.269   +08 46 29.14  .13613 1.1208 139.4 21.8  968  76
2026 08 08 14  23 21 55.857   +08 46 21.76  .13617 1.1209 139.4 21.8  973  76
2026 08 08 15  23 21 56.439   +08 46 14.31  .13621 1.1210 139.5 21.8  978  76
2026 08 08 16  23 21 57.012   +08 46 06.78  .13624 1.1211 139.5 21.8  983  76
2026 08 08 17  23 21 57.579   +08 45 59.17  .13628 1.1211 139.6 21.8  988  76
2026 08 08 18  23 21 58.138   +08 45 51.48  .13631 1.1212 139.6 21.8  993  76
2026 08 08 19  23 21 58.690   +08 45 43.72  .13635 1.1213 139.6 21.8  998  76
2026 08 08 20  23 21 59.234   +08 45 35.88  .13639 1.1214 139.7 21.8 1003  76
2026 08 08 21  23 21 59.771   +08 45 27.97  .13642 1.1214 139.7 21.8 1008  76
2026 08 08 22  23 22 00.300   +08 45 19.98  .13646 1.1215 139.7 21.8 1013  76
2026 08 08 23  23 22 00.822   +08 45 11.91  .13649 1.1216 139.8 21.8 1019  76
2026 08 09 00  23 22 01.337   +08 45 03.77  .13653 1.1217 139.8 21.8 1024  76
2026 08 09 01  23 22 01.845   +08 44 55.55  .13657 1.1217 139.9 21.8 1029  76
2026 08 09 02  23 22 02.345   +08 44 47.25  .13660 1.1218 139.9 21.8 1034  76
2026 08 09 03  23 22 02.838   +08 44 38.88  .13664 1.1219 139.9 21.8 1039  76